Key West NAF, FL

6:06 AM EDT on May 26, 2017 (GMT -0400)
Key West Naval Air Station

Weather History for KNQX - November, 2013

Change the Weather History Date:

Monday, November 25, 2013

  Actual Average Record
Temperature  
Mean Temperature 74 °F -  
Max Temperature 78 °F 78 °F 96 °F (1996)
Min Temperature 71 °F 70 °F 50 °F (1970)
Cooling Degree Days 10    
Growing Degree Days 24 (Base 50)    
Moisture  
Dew Point 69 °F    
Average Humidity 83    
Maximum Humidity 94    
Minimum Humidity 69    
Precipitation  
Precipitation 1.00 in - - ()
Sea Level Pressure  
Sea Level Pressure 30.06 in    
Wind  
Wind Speed 17 mph (ENE)    
Max Wind Speed 25 mph    
Max Gust Speed 33 mph    
Visibility 9 miles    
Events Rain , Thunderstorm    
Averages and records for this station are not official NWS values.
T = Trace of Precipitation, MM = Missing Value Source: NWS Daily Summary

Daily Weather History Graph

Daily Weather History Graph

Search for Another Location

Airport or City:

Trip Planner

Search our weather history database for the weather conditions in past years. The results will help you decide how hot, cold, wet, or windy it might be!

Date:

Astronomy

Nov. 25, 2013 Rise Set
Actual Time 6:49 AM EST 5:37 PM EST
Civil Twilight 6:25 AM EST 6:02 PM EST
Nautical Twilight 5:57 AM EST 6:30 PM EST
Astronomical Twilight 5:30 AM EST 6:57 PM EST
Moon No Moon Rise 12:30 PM EST (11/25)
Length of Visible Light 11h 36m
Length of Day
10h 47m
Waning Gibbous, 51% of the Moon is Illuminated
Nov 25
Waning Gibbous
Nov 25
Last Quarter
Dec 2
New
Dec 9
First Quarter
Dec 17
Full

Hourly Weather History & Observations

Time (EST) Temp. Dew Point Humidity Pressure Visibility Wind Dir Wind Speed Gust Speed Precip Events Conditions
12:35 AM - - N/A% 30.07 in 10.0 mi ENE 17.3 mph 23.0 mph N/A   Mostly Cloudy
12:42 AM - - N/A% 30.08 in 10.0 mi ENE 12.7 mph 23.0 mph N/A   Scattered Clouds
12:53 AM - - N/A% 30.08 in 10.0 mi ENE 21.9 mph 29.9 mph N/A   Mostly Cloudy
1:07 AM - - N/A% 30.07 in 10.0 mi ENE 15.0 mph 24.2 mph N/A   Mostly Cloudy
1:21 AM - - N/A% 30.07 in 10.0 mi ENE 16.1 mph 25.3 mph N/A   Overcast
1:28 AM - - N/A% 30.07 in 10.0 mi ENE 18.4 mph 26.5 mph N/A   Overcast
1:42 AM - - N/A% 30.08 in 9.0 mi ENE 18.4 mph 29.9 mph N/A   Overcast
1:53 AM - - N/A% 30.07 in 10.0 mi ENE 17.3 mph 27.6 mph N/A   Mostly Cloudy
2:22 AM - - N/A% 30.07 in 10.0 mi ENE 17.3 mph 24.2 mph N/A   Mostly Cloudy
2:43 AM - - N/A% 30.07 in 10.0 mi ENE 18.4 mph 25.3 mph N/A   Mostly Cloudy
2:53 AM - - N/A% 30.07 in 10.0 mi ENE 15.0 mph 26.5 mph N/A   Mostly Cloudy
3:53 AM - - N/A% 30.07 in 8.0 mi ENE 13.8 mph 21.9 mph N/A   Scattered Clouds
4:10 AM - - N/A% 30.07 in 9.0 mi ENE 11.5 mph 19.6 mph 0.00 in   Overcast
4:49 AM - - N/A% 30.06 in 4.0 mi NE 11.5 mph 21.9 mph 0.01 in   Unknown
4:53 AM - - N/A% 30.06 in 5.0 mi NE 10.4 mph 19.6 mph 0.01 in   Haze
5:53 AM - - N/A% 30.05 in 10.0 mi ENE 16.1 mph 24.2 mph 0.01 in   Mostly Cloudy
5:58 AM 73.4 °F 68.0 °F 83% 30.05 in 10.0 mi ENE 18.4 mph 25.3 mph N/A   Mostly Cloudy
6:53 AM 73.4 °F 68.0 °F 83% 30.08 in 10.0 mi ENE 13.8 mph 25.3 mph N/A   Mostly Cloudy
7:53 AM 73.4 °F 68.0 °F 83% 30.08 in 10.0 mi ENE 18.4 mph 26.5 mph N/A   Mostly Cloudy
8:53 AM 73.4 °F 68.0 °F 83% 30.09 in 10.0 mi ENE 19.6 mph 31.1 mph N/A   Mostly Cloudy
9:53 AM 73.4 °F 68.0 °F 83% 30.11 in 10.0 mi East 25.3 mph 32.2 mph N/A   Mostly Cloudy
10:53 AM 75.2 °F 68.0 °F 78% 30.12 in 9.0 mi ENE 23.0 mph 33.4 mph N/A   Mostly Cloudy
11:53 AM 78.8 °F 68.0 °F 69% 30.11 in 10.0 mi ENE 20.7 mph 27.6 mph N/A   Mostly Cloudy
12:53 PM 78.8 °F 68.0 °F 69% 30.07 in 10.0 mi ENE 16.1 mph 33.4 mph N/A   Mostly Cloudy
1:53 PM 78.8 °F 68.0 °F 69% 30.04 in 10.0 mi ENE 19.6 mph 29.9 mph N/A   Mostly Cloudy
2:53 PM 78.8 °F 69.8 °F 74% 30.04 in 10.0 mi ENE 24.2 mph 32.2 mph N/A   Overcast
3:53 PM 78.8 °F 69.8 °F 74% 30.03 in 10.0 mi ENE 17.3 mph 29.9 mph N/A   Overcast
4:53 PM 75.2 °F 68.0 °F 78% 30.03 in 10.0 mi ENE 23.0 mph 29.9 mph N/A   Overcast
5:53 PM 73.4 °F 69.8 °F 88% 30.03 in 10.0 mi ENE 16.1 mph 24.2 mph N/A   Overcast
6:39 PM 73.4 °F 69.8 °F 88% 30.04 in 3.0 mi East 18.4 mph 21.9 mph 0.36 in Rain Light Rain
6:53 PM 73.4 °F 69.8 °F 88% 30.04 in 3.0 mi East 15.0 mph 32.2 mph 0.62 in Rain Light Rain
7:24 PM 71.6 °F 69.8 °F 94% 30.04 in 10.0 mi ENE 16.1 mph 24.2 mph 0.24 in   Overcast
7:53 PM 71.6 °F 69.8 °F 94% 30.04 in 10.0 mi ENE 19.6 mph 26.5 mph 0.24 in   Overcast
8:53 PM 71.6 °F 69.8 °F 94% 30.04 in 10.0 mi ENE 13.8 mph - 0.01 in   Mostly Cloudy
9:21 PM 71.6 °F 69.8 °F 94% 30.04 in 10.0 mi ENE 9.2 mph - 0.06 in Rain Light Rain
9:53 PM 71.6 °F 69.8 °F 94% 30.02 in 10.0 mi ENE 13.8 mph - 0.10 in   Mostly Cloudy
10:32 PM - - N/A% 30.03 in 10.0 mi East 17.3 mph 26.5 mph N/A Thunderstorm Thunderstorm
10:53 PM - - N/A% 30.03 in 10.0 mi East 18.4 mph 25.3 mph N/A Thunderstorm Thunderstorm
11:21 PM - - N/A% 30.02 in 8.0 mi ESE 17.3 mph 28.8 mph 0.01 in   Unknown
11:53 PM - - N/A% 30.01 in 10.0 mi ESE 18.4 mph 25.3 mph 0.01 in   Mostly Cloudy